Location: Easter Hill Village
(37.9235°N, 122.3444°W)
Time: 20:45:07
(UTC+00:00)

Unknown - Pass Details

Date: 16 September 2019
Orbit: 549 x 550 km, 53.0° (Epoch: 17 October)

Event Time Altitude Azimuth Distance (km) Brightness Sun altitude
Exits shadow 12:26:02 34° 283° (WNW) 919 4.3 -17.4°
Maximum altitude 12:27:11 43° 324° (NW) 784 4.2 -17.2°
Drops below altitude 10° 12:31:09 10° 37° (NE) 1,826 7.1 -16.5°
Sets 12:33:29 0° 44° (NE) 2,723 8.3 -16.0°
